TimeAKST,TemperatureF,Dew PointF,Humidity,Sea Level PressureIn,VisibilityMPH,Wind Direction,Wind SpeedMPH,Gust SpeedMPH,PrecipitationIn,Events,Conditions,WindDirDegrees,DateUTC
12:16 AM,19.4,19.4,100,29.68,10.0,ENE,10.4,-,N/A,,Overcast,60,2011-12-14 09:16:00
12:36 AM,19.4,17.6,93,29.68,10.0,ENE,5.8,-,N/A,,Overcast,60,2011-12-14 09:36:00
12:56 AM,19.4,17.6,93,29.68,10.0,NE,8.1,-,N/A,,Overcast,50,2011-12-14 09:56:00
1:16 AM,19.4,17.6,93,29.68,10.0,NE,6.9,-,N/A,,Overcast,50,2011-12-14 10:16:00
1:36 AM,17.6,15.8,93,29.68,10.0,NE,4.6,-,N/A,,Overcast,50,2011-12-14 10:36:00
1:56 AM,17.6,15.8,93,29.68,10.0,NNE,4.6,-,N/A,,Overcast,30,2011-12-14 10:56:00
2:16 AM,17.6,15.8,93,29.68,10.0,NE,6.9,-,N/A,,Overcast,50,2011-12-14 11:16:00
2:36 AM,17.6,15.8,93,29.68,10.0,NE,6.9,-,N/A,,Mostly Cloudy,50,2011-12-14 11:36:00
2:56 AM,17.6,15.8,93,29.68,10.0,NE,4.6,-,N/A,,Overcast,40,2011-12-14 11:56:00
3:16 AM,17.6,15.8,93,29.67,10.0,NE,5.8,-,N/A,,Overcast,40,2011-12-14 12:16:00
3:36 AM,17.6,15.8,93,29.68,10.0,ENE,6.9,-,N/A,,Overcast,70,2011-12-14 12:36:00
3:56 AM,17.6,15.8,93,29.68,10.0,ENE,5.8,-,N/A,,Overcast,60,2011-12-14 12:56:00
4:16 AM,17.6,15.8,93,29.68,9.0,NE,5.8,-,N/A,,Overcast,50,2011-12-14 13:16:00
4:36 AM,17.6,15.8,93,29.68,10.0,ENE,5.8,-,N/A,,Overcast,60,2011-12-14 13:36:00
4:56 AM,17.6,15.8,93,29.67,10.0,ENE,5.8,-,N/A,,Overcast,70,2011-12-14 13:56:00
5:16 AM,17.6,15.8,93,29.68,10.0,ENE,4.6,-,N/A,,Overcast,70,2011-12-14 14:16:00
5:36 AM,17.6,15.8,93,29.68,10.0,NE,6.9,-,N/A,,Overcast,50,2011-12-14 14:36:00
6:16 AM,19.4,15.8,86,29.68,7.0,ENE,6.9,-,N/A,,Overcast,60,2011-12-14 15:16:00
6:36 AM,19.4,15.8,86,29.68,5.0,ENE,5.8,-,N/A,,Overcast,70,2011-12-14 15:36:00
6:56 AM,19.4,15.8,86,29.68,10.0,ENE,6.9,-,N/A,,Mostly Cloudy,60,2011-12-14 15:56:00
7:16 AM,19.4,15.8,86,29.68,10.0,ENE,6.9,-,N/A,,Mostly Cloudy,70,2011-12-14 16:16:00
7:36 AM,17.6,15.8,93,29.68,10.0,ENE,5.8,-,N/A,,Scattered Clouds,70,2011-12-14 16:36:00
7:56 AM,17.6,15.8,93,29.68,10.0,ENE,5.8,-,N/A,,Mostly Cloudy,70,2011-12-14 16:56:00
8:16 AM,17.6,15.8,93,29.68,10.0,ENE,5.8,-,N/A,,Overcast,70,2011-12-14 17:16:00
8:36 AM,17.6,15.8,93,29.68,10.0,East,4.6,-,N/A,,Overcast,80,2011-12-14 17:36:00
8:56 AM,17.6,17.6,100,29.68,10.0,East,5.8,-,N/A,,Overcast,80,2011-12-14 17:56:00
9:16 AM,17.6,15.8,93,29.68,10.0,East,4.6,-,N/A,,Overcast,80,2011-12-14 18:16:00
9:36 AM,19.4,15.8,86,29.68,10.0,East,4.6,-,N/A,,Overcast,80,2011-12-14 18:36:00
9:56 AM,19.4,15.8,86,29.69,10.0,ENE,5.8,-,N/A,,Overcast,70,2011-12-14 18:56:00
10:16 AM,19.4,17.6,93,29.69,4.0,ENE,5.8,-,N/A,,Overcast,70,2011-12-14 19:16:00
10:36 AM,19.4,17.6,93,29.69,10.0,ENE,8.1,-,N/A,,Overcast,70,2011-12-14 19:36:00
11:16 AM,19.4,17.6,93,29.71,10.0,ENE,6.9,-,N/A,,Overcast,70,2011-12-14 20:16:00
11:36 AM,19.4,17.6,93,29.72,10.0,ENE,5.8,-,N/A,,Overcast,70,2011-12-14 20:36:00
11:56 AM,19.4,17.6,93,29.72,10.0,East,3.5,-,N/A,,Overcast,80,2011-12-14 20:56:00
12:16 PM,21.2,17.6,86,29.73,10.0,ENE,3.5,-,N/A,,Overcast,70,2011-12-14 21:16:00
12:36 PM,21.2,17.6,86,29.74,10.0,ENE,3.5,-,N/A,,Overcast,60,2011-12-14 21:36:00
12:56 PM,21.2,19.4,93,29.74,1.8,ENE,4.6,-,N/A,,Overcast,60,2011-12-14 21:56:00
1:16 PM,21.2,19.4,93,29.73,10.0,ENE,4.6,-,N/A,,Overcast,70,2011-12-14 22:16:00
1:36 PM,21.2,19.4,93,29.73,10.0,ENE,5.8,-,N/A,,Overcast,60,2011-12-14 22:36:00
1:56 PM,21.2,19.4,93,29.73,10.0,ENE,5.8,-,N/A,,Overcast,70,2011-12-14 22:56:00
2:16 PM,21.2,19.4,93,29.72,10.0,ENE,6.9,-,N/A,,Overcast,60,2011-12-14 23:16:00
2:36 PM,21.2,19.4,93,29.71,10.0,ENE,8.1,-,N/A,,Overcast,60,2011-12-14 23:36:00
2:56 PM,21.2,19.4,93,29.70,10.0,ENE,8.1,-,N/A,,Overcast,70,2011-12-14 23:56:00
3:16 PM,21.2,17.6,86,29.69,10.0,East,9.2,-,N/A,,Overcast,80,2011-12-15 00:16:00
3:36 PM,21.2,17.6,86,29.69,10.0,East,5.8,-,N/A,,Overcast,80,2011-12-15 00:36:00
3:56 PM,21.2,17.6,86,29.69,10.0,East,5.8,-,N/A,,Scattered Clouds,80,2011-12-15 00:56:00
4:16 PM,19.4,17.6,93,29.70,10.0,East,4.6,-,N/A,,Scattered Clouds,80,2011-12-15 01:16:00
4:36 PM,19.4,15.8,86,29.70,10.0,East,5.8,-,N/A,,Mostly Cloudy,80,2011-12-15 01:36:00
4:56 PM,19.4,15.8,86,29.69,10.0,East,5.8,-,N/A,,Scattered Clouds,80,2011-12-15 01:56:00
5:16 PM,17.6,15.8,93,29.69,10.0,East,5.8,-,N/A,,Partly Cloudy,100,2011-12-15 02:16:00
5:36 PM,17.6,15.8,93,29.69,10.0,East,5.8,-,N/A,,Scattered Clouds,80,2011-12-15 02:36:00
5:56 PM,17.6,14.0,86,29.69,10.0,East,4.6,-,N/A,,Mostly Cloudy,80,2011-12-15 02:56:00
6:16 PM,17.6,15.8,93,29.69,10.0,East,5.8,-,N/A,,Overcast,80,2011-12-15 03:16:00
6:36 PM,17.6,15.8,93,29.68,10.0,ENE,3.5,-,N/A,,Overcast,70,2011-12-15 03:36:00
6:56 PM,17.6,15.8,93,29.68,10.0,ENE,3.5,-,N/A,,Overcast,60,2011-12-15 03:56:00
7:16 PM,17.6,15.8,93,29.67,10.0,ENE,4.6,-,N/A,,Overcast,70,2011-12-15 04:16:00
7:36 PM,17.6,15.8,93,29.66,10.0,ENE,5.8,-,N/A,,Mostly Cloudy,70,2011-12-15 04:36:00
7:56 PM,17.6,14.0,86,29.66,10.0,East,5.8,-,N/A,,Clear,100,2011-12-15 04:56:00
8:16 PM,17.6,14.0,86,29.65,10.0,East,5.8,-,N/A,,Clear,80,2011-12-15 05:16:00
8:36 PM,17.6,15.8,93,29.64,10.0,ENE,4.6,-,N/A,,Partly Cloudy,70,2011-12-15 05:36:00
8:56 PM,17.6,15.8,93,29.63,10.0,ENE,5.8,-,N/A,,Clear,70,2011-12-15 05:56:00
9:16 PM,17.6,12.2,79,29.61,10.0,ENE,4.6,-,N/A,,Clear,70,2011-12-15 06:16:00
9:36 PM,17.6,12.2,79,29.60,10.0,East,5.8,-,N/A,,Clear,80,2011-12-15 06:36:00
9:56 PM,17.6,14.0,86,29.59,10.0,ENE,4.6,-,N/A,,Scattered Clouds,60,2011-12-15 06:56:00
10:16 PM,17.6,14.0,86,29.58,10.0,NE,5.8,-,N/A,,Partly Cloudy,50,2011-12-15 07:16:00
10:36 PM,17.6,15.8,93,29.57,10.0,NE,6.9,-,N/A,,Clear,50,2011-12-15 07:36:00
10:56 PM,17.6,14.0,86,29.55,10.0,NE,6.9,-,N/A,,Clear,50,2011-12-15 07:56:00
11:16 PM,17.6,15.8,93,29.54,10.0,East,5.8,-,N/A,,Clear,80,2011-12-15 08:16:00
11:36 PM,17.6,15.8,93,29.54,10.0,ENE,5.8,-,N/A,,Mostly Cloudy,70,2011-12-15 08:36:00
11:56 PM,19.4,17.6,93,29.53,10.0,ENE,6.9,-,N/A,,Mostly Cloudy,70,2011-12-15 08:56:00